カタログに戻る

STARLINK-36066

運用中通信VLEO
NORAD 66592·PAYLOAD·🇺🇸 United States

打ち上げ Nov 22, 2025 から Cape Canaveral Space Force Station

Loading…

次のパス (今後24時間)

TLE

最新Source: CelesTrak SupGP

元期: Sep 14, 2026, 22:51 UTC

1 66592C 25270E   26257.95256944  .00059409  00000+0  21516-2 0  2570
2 66592  43.0031  67.5586 0001519 276.8905 258.4291 15.27552006    16

AllMySatでSTARLINK-36066をリアルタイム追跡

Download on the App Store